GW0049 Weather Reports


time (UTC)temp
F
wind
direction
speed
knots
gust
knots
rain 1hr
in
rain 24hr
in
rain mn
in
humidity
%
barometer
mb
20260506201540 69 286 2.6 7.0 0.00 0.00 0.00 62 1019.1
20260506201026 69 348 2.6 7.0 0.00 0.00 0.00 63 1019.1
20260506200527 69 280 2.6 7.0 0.00 0.00 0.00 61 1019.1
20260506200045 69 17 1.7 7.0 0.00 0.00 0.00 62 1019.1
20260506195527 69 311 3.5 7.0 0.00 0.00 0.00 62 1019.2
20260506195027 68 323 1.7 6.1 0.00 0.00 0.00 63 1019.2
20260506194543 68 286 0.9 7.0 0.00 0.00 0.00 64 1019.3
20260506194027 68 332 3.5 7.0 0.00 0.00 0.00 63 1019.3
20260506193526 68 322 1.7 7.0 0.00 0.00 0.00 64 1019.3
20260506193047 67 248 3.5 7.8 0.00 0.00 0.00 63 1019.4
20260506192526 67 261 2.6 7.8 0.00 0.00 0.00 65 1019.5
20260506192027 67 257 2.6 7.8 0.00 0.00 0.00 65 1019.5
20260506191538 66 0 1.7 6.1 0.00 0.00 0.00 67 1019.6
20260506191027 67 236 2.6 6.1 0.00 0.00 0.00 66 1019.6
20260506190527 66 293 0.9 6.1 0.00 0.00 0.00 67 1019.7
20260506190040 66 264 1.7 7.0 0.00 0.00 0.00 66 1019.6
20260506185527 66 232 2.6 7.0 0.00 0.00 0.00 68 1019.7
20260506185027 65 260 2.6 7.0 0.00 0.00 0.00 69 1019.7
20260506184539 64 201 1.7 7.8 0.00 0.00 0.00 69 1019.9
20260506184027 65 234 3.5 7.8 0.00 0.00 0.00 68 1019.9
20260506183527 66 278 1.7 7.8 0.00 0.00 0.00 68 1019.9
20260506183041 65 205 1.7 7.8 0.00 0.00 0.00 69 1020.0
20260506182526 65 213 1.7 7.8 0.00 0.00 0.00 68 1020.0
20260506182026 65 261 3.5 7.8 0.00 0.00 0.00 68 1020.1
20260506181555 65 234 2.6 7.8 0.00 0.00 0.00 67 1020.0
20260506181027 65 245 2.6 8.7 0.00 0.00 0.00 67 1020.0
20260506180527 65 227 4.3 8.7 0.00 0.00 0.00 69 1020.0
20260506180041 64 5 2.6 7.0 0.00 0.00 0.00 69 1020.0
20260506175529 64 265 2.6 7.0 0.00 0.00 0.00 69 1019.9
20260506175026 64 271 1.7 7.0 0.00 0.00 0.00 69 1020.0
20260506174539 64 253 2.6 7.0 0.00 0.00 0.00 71 1020.0
20260506174030 63 252 1.7 6.1 0.00 0.00 0.00 71 1020.0
20260506173529 64 234 1.7 6.1 0.00 0.00 0.00 69 1020.1
20260506173103 63 221 1.7 7.0 0.00 0.00 0.00 71 1019.9
20260506172527 63 222 2.6 7.0 0.00 0.00 0.00 71 1020.0
20260506172028 63 265 1.7 6.1 0.00 0.00 0.00 71 1020.0
20260506171542 62 236 1.7 6.1 0.00 0.00 0.00 72 1020.0
20260506171028 62 304 0.9 3.5 0.00 0.00 0.00 72 1020.0
20260506170528 62 266 0.9 4.3 0.00 0.00 0.00 72 1020.2
20260506170100 61 305 0.9 4.3 0.00 0.00 0.00 73 1020.2
20260506165528 61 191 0.0 2.6 0.00 0.05 0.00 73 1020.2
20260506165027 61 217 0.9 5.2 0.00 0.05 0.00 74 1020.2
20260506164551 60 249 0.9 5.2 0.00 0.05 0.00 74 1020.2
20260506164027 60 234 0.0 6.1 0.00 0.05 0.00 76 1020.2
20260506163527 60 276 2.6 6.1 0.00 0.05 0.00 74 1020.3
20260506163050 60 0 0.9 5.2 0.00 0.05 0.00 75 1020.3
20260506162527 59 269 1.7 3.5 0.00 0.05 0.00 75 1020.3
20260506162027 60 266 0.9 3.5 0.00 0.05 0.00 75 1020.3
20260506161540 60 0 0.0 3.5 0.00 0.05 0.00 76 1020.2
20260506161028 60 74 0.0 1.7 0.00 0.05 0.00 76 1020.2
20260506160527 59 24 0.0 3.5 0.00 0.05 0.00 76 1020.2
20260506160042 59 0 0.0 3.5 0.00 0.05 0.00 76 1020.2
20260506155527 59 74 0.9 3.5 0.00 0.05 0.00 77 1020.3
20260506155027 59 58 0.0 3.5 0.00 0.05 0.00 77 1020.2
20260506154604 58 55 0.9 3.5 0.00 0.05 0.00 77 1020.2
20260506154027 58 0 0.9 3.5 0.00 0.05 0.00 77 1020.2
20260506153526 58 0 0.0 1.7 0.00 0.05 0.00 78 1020.3
20260506153040 58 0 0.0 2.6 0.00 0.05 0.00 78 1020.3
20260506152526 58 53 0.0 2.6 0.00 0.05 0.00 78 1020.3
20260506152027 58 0 0.9 2.6 0.00 0.05 0.00 78 1020.3
20260506151541 58 327 0.0 1.7 0.00 0.05 0.00 79 1020.2
20260506151027 58 45 0.0 2.6 0.00 0.05 0.00 79 1020.2
20260506150526 57 54 0.0 3.5 0.00 0.05 0.00 79 1020.2
20260506150039 57 0 0.9 3.5 0.00 0.05 0.00 79 1020.3
20260506145530 58 26 0.9 2.6 0.00 0.05 0.00 79 1020.2
20260506145028 57 22 0.9 1.7 0.00 0.05 0.00 79 1020.2
20260506144544 57 0 0.0 1.7 0.00 0.05 0.00 79 1020.2
20260506144027 57 15 0.0 1.7 0.00 0.05 0.00 79 1020.1
20260506143527 57 0 0.0 2.6 0.00 0.05 0.00 80 1020.1
20260506143043 57 10 0.0 2.6 0.00 0.05 0.00 80 1020.0
20260506142527 57 33 0.9 2.6 0.00 0.05 0.00 80 1020.0
20260506142026 57 0 0.0 2.6 0.00 0.05 0.00 80 1020.0
20260506141539 57 27 0.9 2.6 0.00 0.05 0.00 80 1019.9
20260506141027 57 0 0.0 1.7 0.00 0.05 0.00 80 1019.9
20260506140527 57 0 0.0 2.6 0.00 0.05 0.00 81 1019.9
20260506140040 57 0 0.0 2.6 0.00 0.05 0.00 81 1019.8
20260506135526 57 11 0.9 2.6 0.00 0.05 0.00 80 1019.8
20260506135029 57 0 0.0 2.6 0.00 0.05 0.00 81 1019.8
20260506134539 57 38 0.9 2.6 0.00 0.05 0.00 80 1019.7
20260506134026 57 5 0.0 2.6 0.00 0.05 0.00 80 1019.6
20260506133527 57 355 0.0 2.6 0.00 0.05 0.00 80 1019.5
20260506133052 57 0 0.9 2.6 0.00 0.05 0.00 80 1019.4
20260506132527 57 355 0.0 1.7 0.00 0.05 0.00 80 1019.4
20260506132030 57 334 0.9 2.6 0.00 0.05 0.00 80 1019.4
20260506131537 57 316 0.0 2.6 0.00 0.05 0.00 80 1019.4
20260506131027 57 306 0.9 2.6 0.00 0.05 0.00 80 1019.3
20260506130531 57 303 0.9 2.6 0.00 0.05 0.00 81 1019.2
20260506130038 57 9 0.9 2.6 0.00 0.05 0.00 81 1019.3
20260506125526 57 336 0.0 0.9 0.00 0.05 0.00 81 1019.2
20260506125027 57 0 0.0 1.7 0.00 0.05 0.00 81 1019.1
20260506124540 57 0 0.0 1.7 0.00 0.05 0.00 81 1019.1
20260506124027 57 0 0.0 1.7 0.00 0.05 0.00 81 1019.0
20260506123526 57 0 0.0 0.9 0.00 0.05 0.00 81 1019.0
20260506123040 56 0 0.0 2.6 0.00 0.05 0.00 81 1018.9
20260506122527 56 355 0.0 2.6 0.00 0.05 0.00 81 1019.0
20260506122030 56 12 0.0 2.6 0.00 0.05 0.00 81 1018.9
20260506121538 57 0 0.0 2.6 0.00 0.05 0.00 81 1018.9
20260506121027 57 360 0.9 2.6 0.00 0.05 0.00 81 1018.9
20260506120527 57 28 0.0 2.6 0.00 0.05 0.00 81 1018.8
20260506120044 57 10 0.9 2.6 0.00 0.05 0.00 80 1018.8
20260506115527 57 0 0.0 1.7 0.00 0.06 0.00 80 1018.8
20260506115026 57 11 0.0 1.7 0.00 0.06 0.00 80 1018.8
20260506114547 57 348 0.0 2.6 0.00 0.06 0.00 80 1018.7
20260506114027 57 0 0.0 2.6 0.00 0.06 0.00 80 1018.8
20260506113530 57 342 0.0 2.6 0.00 0.06 0.00 80 1018.8
20260506113041 57 0 0.0 1.7 0.00 0.06 0.00 80 1018.7
20260506112527 57 0 0.0 2.6 0.00 0.06 0.00 80 1018.6
20260506112026 57 314 0.0 2.6 0.00 0.06 0.00 80 1018.6
20260506111539 57 0 0.0 2.6 0.00 0.06 0.00 80 1018.5
20260506111026 57 0 0.0 2.6 0.00 0.06 0.00 80 1018.5
20260506110526 57 0 0.0 1.7 0.00 0.06 0.00 80 1018.5
20260506110043 57 323 0.0 1.7 0.00 0.06 0.00 81 1018.5
20260506105527 57 349 0.0 1.7 0.00 0.08 0.00 81 1018.5
20260506105026 57 0 0.0 1.7 0.00 0.08 0.00 82 1018.5
20260506104559 57 0 0.0 1.7 0.00 0.08 0.00 82 1018.4
20260506104031 57 0 0.0 1.7 0.00 0.08 0.00 82 1018.4
20260506103531 57 340 0.0 1.7 0.00 0.08 0.00 82 1018.3
20260506103040 57 0 0.0 1.7 0.00 0.08 0.00 82 1018.3
20260506102529 57 0 0.0 1.7 0.00 0.08 0.00 82 1018.4
20260506102027 57 15 0.0 1.7 0.00 0.08 0.00 82 1018.3
20260506101547 57 26 0.0 0.9 0.00 0.08 0.00 82 1018.4
20260506101028 57 0 0.0 1.7 0.00 0.08 0.00 82 1018.4
20260506100526 57 0 0.0 1.7 0.00 0.08 0.00 82 1018.4
20260506100044 57 28 0.0 1.7 0.00 0.08 0.00 82 1018.4
20260506095527 57 0 0.0 0.0 0.00 0.08 0.00 81 1018.4
20260506095027 57 0 0.0 0.0 0.00 0.08 0.00 81 1018.3
20260506094540 57 0 0.0 0.0 0.00 0.08 0.00 81 1018.3
20260506094026 57 0 0.0 0.0 0.00 0.08 0.00 81 1018.3
20260506093526 57 0 0.0 0.9 0.00 0.08 0.00 81 1018.2
20260506093038 57 0 0.0 0.9 0.00 0.08 0.00 80 1018.3
20260506092526 57 0 0.0 0.9 0.00 0.08 0.00 80 1018.4
20260506092027 57 0 0.0 2.6 0.00 0.08 0.00 80 1018.3
20260506091536 57 0 0.0 2.6 0.00 0.08 0.00 79 1018.3
20260506091030 57 288 0.0 1.7 0.00 0.08 0.00 79 1018.4
20260506090530 57 342 0.0 2.6 0.00 0.08 0.00 79 1018.4
20260506090046 57 350 0.0 2.6 0.00 0.08 0.00 79 1018.4
20260506085529 57 321 0.9 2.6 0.00 0.08 0.00 79 1018.4
20260506085027 57 315 0.9 2.6 0.00 0.08 0.00 79 1018.4
20260506084542 57 0 0.0 0.9 0.00 0.08 0.00 79 1018.4
20260506084031 57 0 0.0 0.9 0.00 0.08 0.00 79 1018.4
20260506083527 57 0 0.0 2.6 0.00 0.08 0.00 79 1018.4
20260506083043 57 0 0.0 2.6 0.00 0.08 0.00 79 1018.4
20260506082526 57 344 0.0 2.6 0.00 0.08 0.00 79 1018.5
20260506082026 57 341 0.0 1.7 0.00 0.08 0.00 79 1018.6
20260506081541 57 0 0.0 1.7 0.00 0.08 0.00 79 1018.6
20260506081029 57 311 0.0 1.7 0.00 0.08 0.00 79 1018.5
20260506080526 57 322 0.0 1.7 0.00 0.08 0.00 79 1018.6
20260506073042 57 303 0.9 3.5 0.00 0.08 0.00 80 1018.3
20260506072527 57 290 0.9 4.3 0.00 0.08 0.00 80 1018.3
20260506072026 57 291 1.7 4.3 0.00 0.08 0.00 80 1018.2
20260506071541 57 300 0.9 3.5 0.00 0.08 0.00 79 1018.2
20260506071026 57 299 0.9 3.5 0.00 0.08 0.00 79 1018.1
20260506070526 57 339 1.7 3.5 0.00 0.08 0.00 79 1018.1
20260506062027 58 0 0.0 3.5 0.00 0.08 0.08 78 1018.0
20260506061537 58 309 0.9 5.2 0.00 0.08 0.08 78 1017.9
20260506061028 58 288 0.9 5.2 0.00 0.08 0.08 78 1017.9
20260506060526 58 286 0.9 5.2 0.00 0.08 0.08 78 1017.9
20260506051026 58 277 1.7 6.1 0.00 0.08 0.08 80 1017.6
20260506050526 58 255 2.6 6.1 0.00 0.08 0.08 80 1017.5
20260506045026 58 265 1.7 5.2 0.00 0.08 0.08 79 1017.4
20260506044542 58 261 1.7 5.2 0.00 0.08 0.08 79 1017.3
20260506044029 58 300 1.7 5.2 0.00 0.08 0.08 79 1017.2
20260506043528 58 264 1.7 8.7 0.00 0.08 0.08 79 1017.2
20260506043048 58 253 2.6 8.7 0.00 0.08 0.08 79 1017.2
20260506042530 58 265 3.5 7.8 0.00 0.08 0.08 79 1017.2
20260506042026 58 284 2.6 7.0 0.00 0.08 0.08 79 1017.1
20260506041544 58 258 2.6 7.0 0.00 0.08 0.08 79 1017.1
20260506041026 58 274 3.5 7.0 0.00 0.08 0.08 78 1017.0
20260506040527 58 298 0.9 7.8 0.00 0.08 0.08 78 1017.0
20260506040047 58 273 2.6 7.8 0.00 0.08 0.08 78 1017.0
20260506035526 58 306 1.7 6.1 0.00 0.08 0.08 78 1016.8
20260506035026 58 265 1.7 7.0 0.00 0.08 0.08 77 1016.7
20260506034544 58 0 1.7 7.8 0.00 0.08 0.08 77 1016.6
20260506034027 58 288 3.5 7.8 0.00 0.08 0.08 77 1016.6
20260506033527 59 258 2.6 7.8 0.00 0.08 0.08 77 1016.5
20260506033043 59 306 1.7 7.0 0.00 0.08 0.08 77 1016.6
20260506032527 59 285 1.7 7.0 0.00 0.08 0.08 77 1016.5
20260506032027 59 307 2.6 7.8 0.00 0.08 0.08 77 1016.4
20260506031544 59 260 3.5 7.8 0.00 0.08 0.08 76 1016.3
20260506031027 59 255 2.6 7.8 0.00 0.08 0.08 76 1016.3
20260506030526 59 302 3.5 7.0 0.00 0.08 0.08 76 1016.2
20260506030041 59 267 1.7 7.8 0.00 0.08 0.08 76 1016.2
20260506025526 59 292 2.6 7.8 0.00 0.08 0.08 76 1016.0
20260506025026 59 305 2.6 7.0 0.00 0.08 0.08 76 1016.0
20260506024546 59 252 2.6 10.4 0.00 0.08 0.08 76 1016.1
20260506024027 60 267 4.3 10.4 0.00 0.08 0.08 75 1016.0
20260506023529 60 274 2.6 7.0 0.00 0.08 0.08 75 1015.9
20260506023038 60 286 2.6 8.7 0.00 0.08 0.08 74 1015.8
20260506022526 60 293 2.6 8.7 0.00 0.08 0.08 74 1015.8
20260506022026 60 277 2.6 7.0 0.00 0.08 0.08 73 1015.7
20260506021550 60 306 2.6 6.1 0.00 0.08 0.08 73 1015.7
20260506021026 60 327 0.9 6.1 0.00 0.08 0.08 73 1015.6
20260506020530 60 290 1.7 6.1 0.00 0.08 0.08 73 1015.6
20260506020041 60 313 1.7 4.3 0.00 0.08 0.08 73 1015.6
20260506015527 60 304 1.7 6.1 0.00 0.08 0.08 73 1015.6
20260506015027 60 279 1.7 6.1 0.00 0.08 0.08 73 1015.5
20260506014542 61 237 1.7 6.1 0.00 0.08 0.08 73 1015.5
20260506014026 61 313 1.7 6.1 0.00 0.08 0.08 72 1015.4
20260506013526 61 251 1.7 7.8 0.00 0.08 0.08 72 1015.5
20260506013044 61 295 2.6 7.8 0.00 0.08 0.08 72 1015.5
20260506012527 61 267 3.5 7.8 0.00 0.08 0.08 72 1015.5
20260506012028 61 267 3.5 7.8 0.00 0.08 0.08 72 1015.5
20260506011545 61 253 1.7 7.8 0.00 0.08 0.08 72 1015.5
20260506011030 61 261 2.6 7.0 0.00 0.08 0.08 72 1015.5
20260506010526 61 262 1.7 6.1 0.00 0.08 0.08 72 1015.5
20260506010047 61 259 2.6 7.0 0.00 0.08 0.08 72 1015.5
20260506005526 61 247 1.7 7.0 0.00 0.08 0.08 71 1015.5
20260506005031 61 292 1.7 7.8 0.00 0.08 0.08 71 1015.5
20260506004544 61 264 3.5 7.8 0.00 0.08 0.08 71 1015.4
20260506004026 61 285 3.5 7.0 0.00 0.08 0.08 71 1015.4
20260506003527 62 279 3.5 7.0 0.00 0.08 0.08 70 1015.4
20260506003042 62 284 2.6 7.8 0.00 0.08 0.08 70 1015.4
20260506002530 62 292 2.6 7.8 0.00 0.08 0.08 69 1015.3
20260506002027 62 277 3.5 7.8 0.00 0.08 0.08 69 1015.3
20260506001542 62 264 3.5 9.6 0.00 0.08 0.08 70 1015.2
20260506001027 62 275 3.5 9.6 0.00 0.08 0.08 70 1015.2
20260506000527 62 309 3.5 8.7 0.00 0.08 0.08 69 1015.1
20260506000039 62 277 2.6 6.1 0.00 0.08 0.08 69 1015.1
20260505235526 62 265 1.7 6.1 0.00 0.08 0.08 69 1015.1
20260505235026 62 292 2.6 8.7 0.00 0.08 0.08 69 1015.1
20260505234602 62 233 4.3 9.6 0.00 0.08 0.08 69 1015.1
20260505234026 62 267 2.6 9.6 0.00 0.08 0.08 70 1015.2
20260505233526 62 288 3.5 8.7 0.00 0.08 0.08 70 1015.2
20260505233038 62 281 4.3 8.7 0.00 0.08 0.08 70 1015.1
20260505232602 62 277 0.9 7.0 0.00 0.08 0.08 71 1015.2
20260505232026 62 265 2.6 7.0 0.00 0.08 0.08 70 1015.2
20260505231538 62 254 0.9 4.3 0.00 0.08 0.08 71 1015.2
20260505231025 62 296 1.7 7.0 0.00 0.08 0.08 71 1015.2
20260505230525 62 311 2.6 7.0 0.00 0.08 0.08 71 1015.2
20260505230042 62 279 1.7 7.0 0.00 0.08 0.08 71 1015.3
20260505225526 62 277 3.5 7.0 0.00 0.08 0.08 70 1015.2
20260505225026 62 271 1.7 8.7 0.00 0.08 0.08 70 1015.2
20260505224540 62 288 1.7 8.7 0.00 0.08 0.08 70 1015.2
20260505224025 62 304 3.5 8.7 0.00 0.08 0.08 70 1015.2
20260505223526 62 290 2.6 6.1 0.00 0.08 0.08 69 1015.3
20260505223044 62 270 2.6 7.0 0.00 0.08 0.08 71 1015.3
20260505222525 61 325 1.7 7.8 0.00 0.08 0.08 71 1015.2
20260505222026 61 0 2.6 7.8 0.00 0.08 0.08 71 1015.3
20260505221539 61 268 2.6 7.0 0.00 0.08 0.08 70 1015.3
20260505221025 61 259 2.6 7.0 0.00 0.08 0.08 72 1015.4
20260505220526 61 252 2.6 7.8 0.00 0.08 0.08 72 1015.5
20260505220040 61 0 3.5 10.4 0.00 0.08 0.08 71 1015.4
20260505215528 61 277 4.3 10.4 0.00 0.08 0.08 71 1015.5
20260505215026 61 259 2.6 7.8 0.00 0.08 0.08 71 1015.6
20260505214549 61 279 3.5 7.8 0.00 0.08 0.08 71 1015.5
20260505214028 61 252 2.6 7.8 0.00 0.08 0.08 71 1015.6
20260505213525 61 278 2.6 7.8 0.00 0.08 0.08 71 1015.7
20260505213043 61 257 2.6 6.1 0.00 0.08 0.08 71 1015.7
20260505212525 61 265 1.7 6.1 0.00 0.08 0.08 71 1015.7
20260505212031 61 277 2.6 7.0 0.00 0.08 0.08 71 1015.6
20260505211549 61 267 1.7 7.0 0.00 0.08 0.08 72 1015.7
20260505211028 61 258 2.6 7.8 0.00 0.08 0.08 71 1015.7
20260505210530 61 281 1.7 7.8 0.00 0.08 0.08 72 1015.8
20260505210040 61 269 3.5 9.6 0.00 0.08 0.08 71 1015.7
20260505205526 61 208 4.3 9.6 0.00 0.08 0.08 72 1015.6
20260505205024 61 248 2.6 7.8 0.00 0.08 0.08 72 1015.7
20260505204539 61 286 2.6 7.8 0.00 0.08 0.08 71 1015.7
20260505204026 61 282 3.5 7.8 0.00 0.08 0.08 71 1015.7
20260505203527 62 279 3.5 8.7 0.00 0.08 0.08 71 1015.8
20260505203055 62 299 2.6 10.4 0.00 0.08 0.08 71 1015.7
20260505202526 61 213 3.5 10.4 0.00 0.08 0.08 72 1015.6
20260505202109 61 259 4.3 10.4 0.00 0.08 0.08 72 1015.7